| time (UTC) | temp F | wind direction | speed knots | gust knots | rain 1hr in | rain 24hr in | rain mn in | humidity % | barometer mb |
| 20260510120036 | 68 | 195 | 0.0 | 1.7 | 0.00 | 0.02 | 0.00 | 85 | 1010.9 |
| 20260510114512 | 67 | 202 | 0.0 | 0.0 | 0.00 | 0.02 | 0.00 | 84 | 1010.8 |
| 20260510113049 | 68 | 203 | 0.0 | 1.7 | 0.00 | 0.02 | 0.00 | 84 | 1010.7 |
| 20260510111522 | 68 | 198 | 1.7 | 3.5 | 0.00 | 0.02 | 0.00 | 84 | 1010.7 |
| 20260510110059 | 68 | 199 | 0.9 | 1.7 | 0.00 | 0.02 | 0.00 | 85 | 1010.9 |
| 20260510104530 | 68 | 166 | 0.0 | 0.9 | 0.00 | 0.02 | 0.00 | 84 | 1010.9 |
| 20260510103001 | 68 | 168 | 0.0 | 0.9 | 0.00 | 0.02 | 0.00 | 83 | 1010.7 |
| 20260510101536 | 68 | 160 | 0.0 | 0.9 | 0.00 | 0.02 | 0.00 | 83 | 1010.6 |
| 20260510100008 | 68 | 155 | 0.0 | 1.7 | 0.00 | 0.02 | 0.00 | 82 | 1010.6 |
| 20260510094542 | 68 | 149 | 0.0 | 1.7 | 0.00 | 0.02 | 0.00 | 82 | 1010.8 |
| 20260510093018 | 68 | 181 | 0.0 | 1.7 | 0.00 | 0.02 | 0.00 | 82 | 1010.8 |
| 20260510091556 | 69 | 175 | 0.0 | 1.7 | 0.00 | 0.02 | 0.00 | 82 | 1010.7 |
| 20260510090024 | 69 | 186 | 0.0 | 2.6 | 0.00 | 0.02 | 0.00 | 81 | 1010.7 |
| 20260510084552 | 69 | 158 | 0.0 | 1.7 | 0.00 | 0.02 | 0.00 | 80 | 1010.7 |
| 20260510083020 | 70 | 141 | 0.0 | 2.6 | 0.00 | 0.02 | 0.00 | 80 | 1010.8 |
| 20260510081620 | 70 | 149 | 0.9 | 2.6 | 0.00 | 0.02 | 0.00 | 80 | 1010.7 |
| 20260510080027 | 70 | 134 | 0.9 | 4.3 | 0.00 | 0.02 | 0.00 | 79 | 1010.7 |
| 20260510074557 | 70 | 116 | 0.9 | 2.6 | 0.00 | 0.02 | 0.00 | 78 | 1010.6 |
| 20260510073029 | 71 | 112 | 0.0 | 0.9 | 0.00 | 0.02 | 0.00 | 77 | 1010.6 |
| 20260510071602 | 71 | 110 | 0.0 | 3.5 | 0.00 | 0.02 | 0.00 | 76 | 1010.6 |
| 20260510070134 | 71 | 165 | 0.0 | 1.7 | 0.00 | 0.02 | 0.00 | 76 | 1010.6 |
| 20260510064503 | 72 | 86 | 1.7 | 3.5 | 0.00 | 0.02 | 0.00 | 75 | 1011.0 |
| 20260510063041 | 72 | 123 | 0.0 | 2.6 | 0.00 | 0.02 | 0.00 | 75 | 1010.9 |
| 20260510061509 | 73 | 99 | 0.9 | 2.6 | 0.00 | 0.02 | 0.00 | 75 | 1011.0 |
| 20260510060043 | 73 | 110 | 0.9 | 4.3 | 0.00 | 0.02 | 0.00 | 75 | 1010.8 |
| 20260510054504 | 74 | 152 | 0.0 | 3.5 | 0.00 | 0.02 | 0.00 | 74 | 1010.6 |
| 20260510053041 | 74 | 134 | 0.9 | 4.3 | 0.00 | 0.02 | 0.00 | 74 | 1010.5 |
| 20260510051504 | 75 | 136 | 0.0 | 2.6 | 0.00 | 0.02 | 0.00 | 73 | 1010.4 |
| 20260510050033 | 75 | 121 | 1.7 | 4.3 | 0.00 | 0.02 | 0.00 | 73 | 1010.3 |
| 20260510044617 | 75 | 139 | 1.7 | 3.5 | 0.00 | 0.02 | 0.02 | 74 | 1010.2 |
| 20260510043050 | 75 | 113 | 0.9 | 3.5 | 0.00 | 0.02 | 0.02 | 73 | 1010.2 |
| 20260510041513 | 75 | 103 | 0.9 | 2.6 | 0.00 | 0.02 | 0.02 | 73 | 1010.1 |
| 20260510040053 | 76 | 96 | 0.0 | 1.7 | 0.00 | 0.02 | 0.02 | 72 | 1009.9 |
| 20260510034528 | 76 | 96 | 0.0 | 1.7 | 0.00 | 0.02 | 0.02 | 71 | 1009.8 |
| 20260510033004 | 77 | 99 | 0.0 | 1.7 | 0.00 | 0.02 | 0.02 | 70 | 1009.8 |
| 20260510031540 | 77 | 118 | 0.9 | 3.5 | 0.00 | 0.02 | 0.02 | 69 | 1009.6 |
| 20260510030014 | 77 | 116 | 2.6 | 7.0 | 0.00 | 0.02 | 0.02 | 69 | 1009.4 |
| 20260510024545 | 77 | 92 | 1.7 | 3.5 | 0.00 | 0.02 | 0.02 | 67 | 1009.1 |
| 20260510023020 | 77 | 72 | 0.9 | 1.7 | 0.00 | 0.02 | 0.02 | 67 | 1008.8 |
| 20260510021559 | 77 | 83 | 0.9 | 1.7 | 0.00 | 0.02 | 0.02 | 68 | 1008.7 |
| 20260510020033 | 76 | 74 | 0.0 | 0.9 | 0.00 | 0.02 | 0.02 | 69 | 1008.4 |
| 20260510014508 | 78 | 74 | 0.0 | 0.9 | 0.00 | 0.02 | 0.02 | 69 | 1008.1 |
| 20260510013047 | 79 | 75 | 0.0 | 0.9 | 0.00 | 0.02 | 0.02 | 64 | 1007.9 |
| 20260510011523 | 80 | 75 | 0.0 | 0.9 | 0.00 | 0.02 | 0.02 | 61 | 1007.7 |
| 20260510010059 | 81 | 75 | 0.0 | 5.2 | 0.00 | 0.02 | 0.02 | 59 | 1007.9 |
| 20260510004538 | 83 | 56 | 1.7 | 5.2 | 0.00 | 0.02 | 0.02 | 56 | 1008.0 |
| 20260510003011 | 87 | 78 | 0.9 | 2.6 | 0.00 | 0.02 | 0.02 | 56 | 1008.0 |
| 20260510001548 | 89 | 113 | 0.0 | 3.5 | 0.00 | 0.02 | 0.02 | 54 | 1007.8 |
| 20260510000026 | 90 | 111 | 1.7 | 7.0 | 0.00 | 0.02 | 0.02 | 51 | 1007.7 |
| 20260509234602 | 93 | 124 | 0.0 | 1.7 | 0.00 | 0.02 | 0.02 | 47 | 1007.5 |
| 20260509233032 | 92 | 207 | 0.9 | 3.5 | 0.00 | 0.02 | 0.02 | 46 | 1007.2 |
| 20260509231508 | 92 | 228 | 0.9 | 3.5 | 0.00 | 0.02 | 0.02 | 43 | 1007.3 |
| 20260509230042 | 93 | 136 | 0.0 | 1.7 | 0.00 | 0.02 | 0.02 | 42 | 1007.3 |
| 20260509224511 | 92 | 195 | 0.9 | 3.5 | 0.00 | 0.02 | 0.02 | 44 | 1007.1 |
| 20260509223052 | 92 | 219 | 1.7 | 3.5 | 0.00 | 0.02 | 0.02 | 45 | 1007.3 |
| 20260509221521 | 91 | 118 | 0.0 | 2.6 | 0.00 | 0.02 | 0.02 | 51 | 1007.0 |
| 20260509220059 | 92 | 111 | 0.9 | 2.6 | 0.00 | 0.02 | 0.02 | 50 | 1006.9 |
| 20260509214531 | 92 | 98 | 0.0 | 3.5 | 0.00 | 0.02 | 0.02 | 50 | 1006.9 |
| 20260509213103 | 91 | 272 | 0.0 | 2.6 | 0.00 | 0.02 | 0.02 | 52 | 1007.3 |
| 20260509211536 | 90 | 85 | 0.9 | 6.1 | 0.00 | 0.02 | 0.02 | 52 | 1007.7 |
| 20260509210016 | 89 | 314 | 1.7 | 5.2 | 0.00 | 0.02 | 0.02 | 55 | 1008.0 |
| 20260509204542 | 89 | 264 | 0.0 | 4.3 | 0.00 | 0.02 | 0.02 | 54 | 1008.1 |
| 20260509203018 | 89 | 185 | 0.0 | 4.3 | 0.00 | 0.02 | 0.02 | 53 | 1008.3 |
| 20260509201600 | 89 | 283 | 1.7 | 5.2 | 0.00 | 0.02 | 0.02 | 53 | 1008.3 |
| 20260509200022 | 88 | 283 | 3.5 | 7.0 | 0.00 | 0.02 | 0.02 | 55 | 1008.4 |
| 20260509194557 | 88 | 286 | 1.7 | 6.1 | 0.00 | 0.02 | 0.02 | 54 | 1008.6 |
| 20260509193037 | 87 | 278 | 2.6 | 7.0 | 0.00 | 0.02 | 0.02 | 58 | 1008.8 |
| 20260509191508 | 87 | 278 | 2.6 | 5.2 | 0.00 | 0.02 | 0.02 | 61 | 1009.0 |
| 20260509190040 | 87 | 288 | 1.7 | 6.1 | 0.00 | 0.02 | 0.02 | 61 | 1009.3 |
| 20260509184508 | 85 | 315 | 2.6 | 5.2 | 0.00 | 0.02 | 0.02 | 65 | 1009.3 |
| 20260509183043 | 85 | 287 | 3.5 | 6.1 | 0.00 | 0.02 | 0.02 | 62 | 1009.6 |
| 20260509181514 | 84 | 231 | 1.7 | 4.3 | 0.00 | 0.02 | 0.02 | 64 | 1009.9 |
| 20260509180051 | 84 | 212 | 1.7 | 4.3 | 0.00 | 0.02 | 0.02 | 65 | 1010.1 |
| 20260509174529 | 84 | 222 | 1.7 | 4.3 | 0.00 | 0.02 | 0.02 | 64 | 1010.4 |
| 20260509173109 | 83 | 297 | 0.0 | 5.2 | 0.00 | 0.02 | 0.02 | 67 | 1010.5 |
| 20260509171541 | 83 | 244 | 0.0 | 3.5 | 0.00 | 0.02 | 0.02 | 68 | 1010.7 |
| 20260509170002 | 82 | 266 | 1.7 | 4.3 | 0.00 | 0.02 | 0.02 | 67 | 1010.7 |
| 20260509164535 | 81 | 122 | 0.0 | 3.5 | 0.00 | 0.02 | 0.02 | 71 | 1010.6 |
| 20260509163124 | 80 | 214 | 0.9 | 2.6 | 0.00 | 0.02 | 0.02 | 73 | 1010.6 |
| 20260509161529 | 79 | 285 | 0.9 | 4.3 | 0.00 | 0.02 | 0.02 | 78 | 1010.5 |
| 20260509160053 | 77 | 293 | 1.7 | 5.2 | 0.00 | 0.02 | 0.02 | 82 | 1010.5 |
| 20260509154520 | 76 | 316 | 0.9 | 1.7 | 0.00 | 0.02 | 0.02 | 83 | 1010.7 |
| 20260509153057 | 76 | 75 | 0.9 | 3.5 | 0.00 | 0.02 | 0.02 | 83 | 1010.2 |
| 20260509151528 | 76 | 72 | 0.9 | 3.5 | 0.00 | 0.02 | 0.02 | 84 | 1009.8 |
| 20260509150001 | 75 | 283 | 0.0 | 1.7 | 0.00 | 0.02 | 0.02 | 85 | 1010.6 |
| 20260509144610 | 75 | 249 | 0.0 | 1.7 | 0.00 | 0.02 | 0.02 | 86 | 1010.7 |
| 20260509143008 | 74 | 227 | 0.9 | 4.3 | 0.00 | 0.02 | 0.02 | 86 | 1010.4 |
| 20260509141544 | 74 | 228 | 2.6 | 5.2 | 0.00 | 0.02 | 0.02 | 86 | 1010.1 |
| 20260509140009 | 74 | 233 | 0.9 | 1.7 | 0.00 | 0.02 | 0.02 | 86 | 1010.0 |
| 20260509134548 | 74 | 28 | 0.9 | 1.7 | 0.00 | 0.02 | 0.02 | 86 | 1009.5 |
| 20260509133022 | 74 | 51 | 0.9 | 3.5 | 0.00 | 0.02 | 0.02 | 86 | 1009.4 |
| 20260509131559 | 74 | 100 | 0.9 | 2.6 | 0.02 | 0.02 | 0.02 | 86 | 1010.0 |
| 20260509130036 | 74 | 346 | 0.0 | 0.9 | 0.02 | 0.02 | 0.02 | 86 | 1011.0 |
| 20260509124511 | 73 | 316 | 0.9 | 1.7 | 0.02 | 0.02 | 0.02 | 86 | 1011.0 |
| 20260509123046 | 73 | 110 | 0.0 | 1.7 | 0.02 | 0.02 | 0.02 | 86 | 1010.6 |
| 20260509121527 | 73 | 32 | 0.0 | 1.7 | 0.00 | 0.00 | 0.00 | 86 | 1010.7 |